{"data":{"norad_id":52284,"intl_designator":"2022-041Z","name":"STARLINK-3561","alt_names":[],"object_type":"PAYLOAD","status":"ACTIVE","operator":null,"country":"US","launch_date":"2022-04-21","launch_site_code":"AFETR","launch_vehicle":null,"mission":null,"orbit_class":"UNKNOWN","rcs_meters":null,"size_class":null,"mass_kg":null,"dimensions":null,"purposes":["comms"],"wikipedia_slug":null,"has_3d_model":false,"image_url":null,"decayed_at":null,"tle_current":{"epoch":"2026-09-19T17:54:26.440704Z","epoch_age_seconds":124679,"freshness":"FRESH","line1":"1 52284U 22041Z   26262.74613936  .00003974  00000+0  12882-3 0  9993","line2":"2 52284  53.1588 295.6007 0001373  83.9327 276.1832 15.34367642243962","mean_motion":15.34367642,"eccentricity":0.0001373,"inclination_deg":53.1588,"raan_deg":295.6007,"arg_perigee_deg":83.9327,"mean_anomaly_deg":276.1832,"bstar":0.00012882,"rev_number":24396,"period_min":93.849737219628,"perigee_km":461.86015612241,"apogee_km":463.73867726243,"semimajor_km":6840.9364166924,"source":"CELESTRAK","updated_at":"2026-09-20T09:00:40.015261Z"}}}